Epoch = 1994 Mar. 29.0 TT T = 1994 Mar. 26.2796 TT Peri. = 261.0331 e = 1.000279 Node = 193.7889 2000.0 q = 0.967273 AU Incl. = 105.0261
m1 = 7.5 + 5 log d + 9.0 log r [ ,30] ( - 1994 Apr. 25) m1 = 7.7 + 5 log d + 30 log r [30, ] (1994 Apr. 25 - ) * Gray curve is: m1 = 7.5 + 5 log d + 9.0 log r